Time,TemperatureF,DewpointF,PressureIn,WindDirection,WindDirectionDegrees,WindSpeedMPH,WindSpeedGustMPH,Humidity,HourlyPrecipIn,Conditions,Clouds,dailyrainin,SoftwareType,DateUTC
2013-07-28 00:32:00,54.0,54.0,-100.00,North,355,0.0,0.0,99,-99.99,,,-99.99,,2013-07-28 05:32:00,
2013-07-28 00:43:00,54.0,54.0,-100.00,North,355,0.0,0.0,99,-99.99,,,-99.99,,2013-07-28 05:43:00,
2013-07-28 00:52:00,54.0,54.0,-100.00,North,355,0.0,0.0,99,-99.99,,,-99.99,,2013-07-28 05:52:00,
2013-07-28 01:32:00,54.0,54.0,-100.00,North,355,0.0,0.0,99,-99.99,,,-99.99,,2013-07-28 06:32:00,
2013-07-28 01:43:00,54.0,54.0,-100.00,North,355,0.0,0.0,99,-99.99,,,-99.99,,2013-07-28 06:43:00,
2013-07-28 01:52:00,54.0,54.0,-100.00,North,355,0.0,0.0,99,-99.99,,,-99.99,,2013-07-28 06:52:00,
2013-07-28 02:32:00,54.0,54.0,-100.00,North,355,0.0,0.0,99,-99.99,,,-99.99,,2013-07-28 07:32:00,
2013-07-28 02:43:00,54.0,54.0,-100.00,North,355,0.0,0.0,99,-99.99,,,-99.99,,2013-07-28 07:43:00,
2013-07-28 02:53:00,54.0,54.0,-100.00,North,355,0.0,0.0,99,-99.99,,,-99.99,,2013-07-28 07:53:00,
2013-07-28 03:12:00,54.0,54.0,-100.00,North,355,0.0,0.0,99,-99.99,,,-99.99,,2013-07-28 08:12:00,
2013-07-28 03:22:00,54.0,54.0,-100.00,North,355,0.0,0.0,99,-99.99,,,-99.99,,2013-07-28 08:22:00,
2013-07-28 03:33:00,54.0,54.0,-100.00,North,355,0.0,0.0,99,-99.99,,,-99.99,,2013-07-28 08:33:00,
2013-07-28 03:42:00,54.0,54.0,-100.00,North,355,0.0,0.0,99,-99.99,,,-99.99,,2013-07-28 08:42:00,
2013-07-28 03:53:00,54.0,54.0,-100.00,North,355,0.0,0.0,99,-99.99,,,-99.99,,2013-07-28 08:53:00,
2013-07-28 04:12:00,54.0,54.0,-100.00,North,355,0.0,0.0,99,-99.99,,,-99.99,,2013-07-28 09:12:00,
2013-07-28 04:22:00,54.0,54.0,-100.00,North,355,0.0,0.0,99,-99.99,,,-99.99,,2013-07-28 09:22:00,
2013-07-28 04:32:00,54.0,54.0,-100.00,North,355,0.0,0.0,99,-99.99,,,-99.99,,2013-07-28 09:32:00,
2013-07-28 04:43:00,54.0,54.0,-100.00,North,355,0.0,0.0,99,-99.99,,,-99.99,,2013-07-28 09:43:00,
2013-07-28 04:53:00,54.0,54.0,-100.00,North,355,0.0,0.0,99,-99.99,,,-99.99,,2013-07-28 09:53:00,
2013-07-28 05:12:00,54.0,54.0,-100.00,North,355,0.0,0.0,99,-99.99,,,-99.99,,2013-07-28 10:12:00,
2013-07-28 05:33:00,54.0,54.0,-100.00,North,355,0.0,0.0,99,-99.99,,,-99.99,,2013-07-28 10:33:00,
2013-07-28 05:42:00,54.0,54.0,-100.00,North,355,0.0,0.0,99,-99.99,,,-99.99,,2013-07-28 10:42:00,
2013-07-28 05:52:00,54.0,54.0,-100.00,North,355,0.0,0.0,99,-99.99,,,-99.99,,2013-07-28 10:52:00,
2013-07-28 06:12:00,54.0,53.0,-100.00,North,355,0.0,0.0,99,-99.99,,,-99.99,,2013-07-28 11:12:00,
2013-07-28 06:22:00,54.0,53.0,-100.00,North,355,0.0,0.0,99,-99.99,,,-99.99,,2013-07-28 11:22:00,
2013-07-28 06:33:00,54.0,53.0,-100.00,North,355,0.0,0.0,99,-99.99,,,-99.99,,2013-07-28 11:33:00,
2013-07-28 06:43:00,54.0,53.0,-100.00,North,355,0.0,0.0,99,-99.99,,,-99.99,,2013-07-28 11:43:00,
2013-07-28 06:53:00,54.0,53.0,-100.00,North,355,0.0,0.0,99,-99.99,,,-99.99,,2013-07-28 11:53:00,
2013-07-28 09:12:00,57.0,57.0,-100.00,North,355,0.0,0.0,99,-99.99,,,-99.99,,2013-07-28 14:12:00,
2013-07-28 09:23:00,57.0,57.0,-100.00,North,355,0.0,0.0,99,-99.99,,,-99.99,,2013-07-28 14:23:00,
2013-07-28 09:53:00,57.0,57.0,-100.00,North,355,0.0,0.0,99,-99.99,,,-99.99,,2013-07-28 14:53:00,
2013-07-28 11:33:00,60.0,56.0,-100.00,North,355,0.0,0.0,85,-99.99,,,-99.99,,2013-07-28 16:33:00,
2013-07-28 11:43:00,60.0,56.0,-100.00,North,355,0.0,0.0,85,-99.99,,,-99.99,,2013-07-28 16:43:00,
2013-07-28 11:52:00,60.0,56.0,-100.00,North,355,0.0,0.0,85,-99.99,,,-99.99,,2013-07-28 16:52:00,
2013-07-28 12:13:00,60.0,56.0,-100.00,North,355,0.0,0.0,87,-99.99,,,-99.99,,2013-07-28 17:13:00,
2013-07-28 12:23:00,60.0,56.0,-100.00,North,355,0.0,0.0,87,-99.99,,,-99.99,,2013-07-28 17:23:00,
2013-07-28 12:32:00,60.0,56.0,-100.00,North,355,0.0,0.0,87,-99.99,,,-99.99,,2013-07-28 17:32:00,
2013-07-28 12:43:00,60.0,56.0,-100.00,North,355,0.0,0.0,87,-99.99,,,-99.99,,2013-07-28 17:43:00,
2013-07-28 12:53:00,60.0,56.0,-100.00,North,355,0.0,0.0,87,-99.99,,,-99.99,,2013-07-28 17:53:00,
2013-07-28 13:12:00,60.0,55.0,-100.00,North,355,0.0,0.0,85,-99.99,,,-99.99,,2013-07-28 18:12:00,
2013-07-28 13:33:00,61.0,54.0,-100.00,North,355,0.0,0.0,79,-99.99,,,-99.99,,2013-07-28 18:33:00,
2013-07-28 13:43:00,61.0,54.0,-100.00,North,355,0.0,0.0,79,-99.99,,,-99.99,,2013-07-28 18:43:00,
2013-07-28 13:52:00,61.0,54.0,-100.00,North,355,0.0,0.0,79,-99.99,,,-99.99,,2013-07-28 18:52:00,
2013-07-28 14:12:00,63.0,55.0,-100.00,North,355,0.0,0.0,75,-99.99,,,-99.99,,2013-07-28 19:12:00,
2013-07-28 14:33:00,64.0,55.0,-100.00,North,355,0.0,0.0,71,-99.99,,,-99.99,,2013-07-28 19:33:00,
2013-07-28 14:43:00,64.0,55.0,-100.00,North,355,0.0,0.0,71,-99.99,,,-99.99,,2013-07-28 19:43:00,
2013-07-28 14:52:00,64.0,55.0,-100.00,North,355,0.0,0.0,71,-99.99,,,-99.99,,2013-07-28 19:52:00,
2013-07-28 15:12:00,65.0,55.0,-100.00,North,355,0.0,0.0,71,-99.99,,,-99.99,,2013-07-28 20:12:00,
2013-07-28 15:33:00,69.0,57.0,-100.00,North,355,0.0,0.0,66,-99.99,,,-99.99,,2013-07-28 20:33:00,
2013-07-28 15:43:00,69.0,57.0,-100.00,North,355,0.0,0.0,66,-99.99,,,-99.99,,2013-07-28 20:43:00,
2013-07-28 15:52:00,69.0,57.0,-100.00,North,355,0.0,0.0,66,-99.99,,,-99.99,,2013-07-28 20:52:00,
2013-07-28 16:13:00,67.0,56.0,-100.00,North,355,0.0,0.0,66,-99.99,,,-99.99,,2013-07-28 21:13:00,
2013-07-28 16:33:00,68.0,57.0,-100.00,North,355,0.0,0.0,68,-99.99,,,-99.99,,2013-07-28 21:33:00,
2013-07-28 16:44:00,68.0,57.0,-100.00,North,355,0.0,0.0,68,-99.99,,,-99.99,,2013-07-28 21:44:00,
2013-07-28 16:52:00,68.0,57.0,-100.00,North,355,0.0,0.0,68,-99.99,,,-99.99,,2013-07-28 21:52:00,
2013-07-28 17:12:00,67.0,57.0,-100.00,North,355,0.0,0.0,69,-99.99,,,-99.99,,2013-07-28 22:12:00,
2013-07-28 17:22:00,67.0,57.0,-100.00,North,355,0.0,0.0,69,-99.99,,,-99.99,,2013-07-28 22:22:00,
2013-07-28 17:32:00,67.0,57.0,-100.00,North,355,0.0,0.0,69,-99.99,,,-99.99,,2013-07-28 22:32:00,
2013-07-28 17:43:00,67.0,57.0,-100.00,North,355,0.0,0.0,69,-99.99,,,-99.99,,2013-07-28 22:43:00,
2013-07-28 17:52:00,67.0,57.0,-100.00,North,355,0.0,0.0,69,-99.99,,,-99.99,,2013-07-28 22:52:00,
2013-07-28 17:53:00,68.0,56.0,-100.00,North,355,0.0,0.0,65,-99.99,,,-99.99,,2013-07-28 22:53:00,
2013-07-28 18:12:00,68.0,56.0,-100.00,North,355,0.0,0.0,65,-99.99,,,-99.99,,2013-07-28 23:12:00,
2013-07-28 18:22:00,68.0,56.0,-100.00,North,355,0.0,0.0,65,-99.99,,,-99.99,,2013-07-28 23:22:00,
2013-07-28 18:32:00,68.0,56.0,-100.00,North,355,0.0,0.0,65,-99.99,,,-99.99,,2013-07-28 23:32:00,
2013-07-28 18:43:00,68.0,56.0,-100.00,North,355,0.0,0.0,65,-99.99,,,-99.99,,2013-07-28 23:43:00,
2013-07-28 18:51:00,66.0,56.0,-100.00,North,355,0.0,0.0,71,-99.99,,,-99.99,,2013-07-28 23:51:00,
2013-07-28 19:22:00,66.0,56.0,-100.00,North,355,0.0,0.0,71,-99.99,,,-99.99,,2013-07-29 00:22:00,
2013-07-28 19:32:00,66.0,56.0,-100.00,North,355,0.0,0.0,71,-99.99,,,-99.99,,2013-07-29 00:32:00,
2013-07-28 19:43:00,66.0,56.0,-100.00,North,355,0.0,0.0,71,-99.99,,,-99.99,,2013-07-29 00:43:00,
2013-07-28 19:54:00,65.0,58.0,-100.00,North,355,0.0,0.0,79,-99.99,,,-99.99,,2013-07-29 00:54:00,
2013-07-28 20:14:00,65.0,58.0,-100.00,North,355,0.0,0.0,78,-99.99,,,-99.99,,2013-07-29 01:14:00,
2013-07-28 20:35:00,65.0,58.0,-100.00,North,355,0.0,0.0,79,-99.99,,,-99.99,,2013-07-29 01:35:00,
2013-07-28 20:44:00,65.0,58.0,-100.00,North,355,0.0,0.0,79,-99.99,,,-99.99,,2013-07-29 01:44:00,
2013-07-28 21:14:00,63.0,60.0,-100.00,North,355,0.0,0.0,88,-99.99,,,-99.99,,2013-07-29 02:14:00,
2013-07-28 23:12:00,60.0,59.0,-100.00,North,355,0.0,0.0,99,-99.99,,,-99.99,,2013-07-29 04:12:00,
2013-07-28 23:32:00,60.0,59.0,-100.00,North,355,0.0,0.0,99,-99.99,,,-99.99,,2013-07-29 04:32:00,
2013-07-28 23:43:00,60.0,59.0,-100.00,North,355,0.0,0.0,99,-99.99,,,-99.99,,2013-07-29 04:43:00,
2013-07-28 23:53:00,60.0,59.0,-100.00,North,355,0.0,0.0,99,-99.99,,,-99.99,,2013-07-29 04:53:00,